Temp
-5 -5 -6 -6 -6 -6 -6 -6 -6 -7 -7 -7 -7 -7 -7 -7 -7 -7 -7 -7 -7 -7 -7 -7 -7 -7 -7 -7 -7 -7 -7 -6 -6 -6 -6 -6 -6 -7 -6 -7 -7 -7
-5 -6 -6 -6 -6 -6 -6 -6 -7 -7 -7 -7 -7 -7 -7 -7 -7 -7 -7 -7 -7 -7 -7 -7 -7 -7 -7 -7 -7 -7 -6 -6 -6 -6 -6 -6 -6 -7 -7 -7 -7 -7
-6 -6 -6 -6 -6 -6 -6 -7 -7 -7 -7 -7 -7 -7 -7 -7 -7 -7 -7 -7 -7 -7 -7 -7 -7 -7 -7 -7 -7 -7 -6 -6 -6 -6 -7 -7 -7 -7 -7 -7 -7 -7
-6 -6 -6 -6 -6 -6 -7 -7 -7 -7 -7 -7 -7 -7 -7 -7 -7 -7 -7 -7 -7 -7 -7 -7 -7 -7 -7 -7 -7 -7 -6 -7 -7 -7 -7 -7 -7 -7 -7 -7 -7 -7
-6 -6 -6 -6 -7 -7 -7 -7 -7 -7 -7 -7 -7 -7 -7 -7 -7 -7 -7 -7 -7 -7 -7 -7 -7 -7 -7 -7 -7 -7 -7 -7 -7 -7 -7 -7 -7 -7 -7 -7 -7 -7
-6 -6 -6 -6 -7 -7 -7 -7 -7 -7 -7 -7 -7 -7 -7 -7 -7 -7 -7 -7 -7 -7 -7 -7 -7 -7 -7 -7 -7 -7 -7 -7 -7 -7 -7 -7 -7 -7 -7 -7 -7 -7
-6 -6 -6 -6 -6 -6 -7 -7 -7 -7 -7 -7 -7 -8 -8 -7 -7 -7 -7 -7 -7 -7 -7 -7 -7 -7 -7 -7 -7 -7 -7 -8 -8 -8 -8 -8 -7 -7 -7 -7 -7 -7
-5 -6 -6 -6 -6 -6 -7 -7 -7 -7 -7 -8 -8 -8 -8 -7 -7 -7 -7 -7 -7 -7 -7 -7 -7 -7 -7 -7 -7 -7 -7 -8 -8 -8 -8 -8 -7 -7 -7 -7 -7 -7
-5 -5 -5 -5 -6 -6 -7 -7 -7 -8 -8 -8 -8 -8 -8 -8 -7 -7 -7 -7 -7 -7 -7 -7 -7 -7 -7 -8 -7 -7 -7 -7 -7 -7 -7 -7 -7 -7 -7 -7 -7 -7
-5 -5 -5 -5 -6 -6 -7 -7 -7 -7 -7 -8 -8 -8 -8 -8 -8 -8 -7 -7 -7 -7 -7 -7 -7 -7 -8 -7 -7 -7 -7 -7 -7 -7 -7 -7 -7 -7 -7 -7 -7 -7
-6 -5 -5 -6 -6 -6 -6 -7 -7 -7 -7 -8 -8 -8 -8 -8 -8 -8 -7 -7 -7 -7 -7 -7 -7 -8 -8 -7 -7 -7 -7 -7 -7 -7 -7 -7 -7 -7 -7 -7 -7 -7
-6 -6 -6 -6 -6 -6 -6 -6 -7 -7 -7 -7 -8 -8 -8 -8 -8 -8 -7 -7 -7 -7 -7 -7 -8 -8 -8 -8 -8 -7 -7 -7 -7 -7 -7 -7 -7 -7 -7 -7 -7 -7
-6 -6 -6 -6 -6 -6 -6 -6 -6 -7 -7 -8 -8 -8 -8 -8 -8 -8 -8 -8 -7 -7 -7 -8 -8 -8 -8 -8 -8 -8 -8 -8 -8 -8 -8 -7 -7 -7 -7 -7 -7 -7
-6 -6 -6 -6 -6 -6 -6 -6 -6 -7 -7 -7 -8 -8 -8 -8 -8 -8 -8 -8 -8 -8 -8 -8 -8 -8 -8 -8 -8 -8 -8 -8 -8 -8 -7 -7 -7 -7 -7 -7 -7 -7
-6 -6 -6 -6 -6 -6 -6 -6 -6 -7 -7 -7 -8 -8 -8 -8 -8 -8 -8 -8 -8 -8 -8 -8 -8 -8 -8 -8 -8 -8 -8 -8 -8 -8 -8 -8 -7 -7 -7 -7 -7 -7
-6 -6 -6 -6 -6 -6 -6 -6 -7 -7 -7 -7 -8 -8 -8 -8 -8 -8 -8 -8 -8 -8 -8 -7 -8 -8 -8 -8 -8 -8 -8 -8 -8 -8 -8 -8 -8 -7 -7 -7 -7 -7
-5 -5 -6 -6 -6 -6 -6 -6 -7 -7 -7 -7 -8 -8 -8 -8 -8 -8 -8 -8 -8 -8 -8 -7 -8 -8 -8 -8 -8 -8 -8 -8 -8 -8 -9 -8 -8 -8 -8 -8 -7 -7
-5 -5 -5 -6 -6 -6 -6 -6 -7 -7 -7 -7 -8 -8 -8 -8 -8 -8 -8 -8 -8 -8 -8 -8 -8 -8 -8 -9 -9 -9 -8 -8 -8 -9 -9 -8 -8 -8 -8 -8 -8 -7
-6 -5 -5 -6 -6 -6 -6 -6 -6 -7 -7 -8 -8 -8 -8 -8 -8 -8 -8 -8 -8 -8 -8 -8 -8 -8 -9 -9 -9 -9 -8 -8 -8 -9 -9 -8 -8 -8 -8 -8 -8 -8
-6 -6 -6 -6 -6 -6 -6 -6 -6 -7 -7 -8 -8 -8 -8 -8 -8 -8 -8 -8 -8 -8 -8 -8 -8 -9 -9 -9 -9 -9 -9 -9 -9 -9 -9 -8 -8 -8 -8 -8 -8 -8
-6 -6 -6 -6 -6 -6 -6 -6 -6 -7 -7 -8 -8 -8 -8 -8 -8 -8 -8 -8 -8 -8 -8 -8 -9 -9 -9 -9 -9 -9 -9 -9 -9 -9 -9 -8 -8 -8 -8 -8 -8 -8
-6 -6 -6 -6 -6 -7 -7 -6 -7 -7 -8 -8 -8 -8 -8 -8 -8 -8 -8 -9 -9 -8 -8 -8 -9 -9 -9 -9 -9 -9 -9 -9 -9 -9 -9 -9 -8 -8 -8 -8 -8 -8
-7 -7 -6 -6 -7 -7 -7 -7 -7 -7 -8 -8 -8 -8 -8 -8 -8 -8 -9 -9 -9 -8 -8 -8 -9 -9 -9 -9 -9 -9 -9 -9 -9 -8 -9 -8 -8 -8 -8 -8 -8 -8
-7 -7 -7 -7 -7 -7 -7 -7 -7 -8 -8 -8 -8 -8 -8 -9 -9 -9 -9 -9 -8 -8 -8 -9 -9 -9 -9 -9 -9 -9 -9 -9 -9 -9 -9 -8 -8 -8 -8 -8 -8 -8
-7 -7 -7 -7 -7 -7 -7 -8 -8 -8 -8 -8 -8 -8 -9 -9 -9 -9 -9 -8 -8 -8 -8 -9 -9 -9 -9 -9 -9 -9 -9 -9 -9 -9 -9 -9 -9 -8 -8 -8 -8 -9
-7 -7 -7 -7 -7 -8 -8 -8 -8 -8 -8 -8 -8 -8 -9 -9 -9 -9 -9 -8 -8 -8 -8 -9 -9 -9 -9 -9 -9 -9 -9 -9 -9 -9 -9 -9 -9 -9 -9 -9 -9 -9
Height
5918 5918 5919 5919 5919 5919 5919 5919 5920 5920 5920 5920 5920 5920 5921 5921 5921 5921 5921 5921 5921 5921 5920 5920 5919 5918 5918 5917 5917 5916 5915 5914 5912 5910 5909 5907 5905 5904 5902 5901 5899 5898
5915 5916 5917 5917 5917 5917 5917 5917 5918 5918 5918 5918 5918 5918 5919 5919 5919 5919 5919 5919 5920 5919 5919 5919 5918 5917 5916 5916 5915 5915 5914 5912 5911 5909 5907 5906 5904 5903 5901 5900 5898 5897
5912 5914 5915 5915 5914 5914 5915 5915 5916 5916 5916 5916 5916 5916 5917 5918 5918 5918 5918 5918 5918 5918 5917 5917 5917 5916 5915 5915 5914 5913 5912 5910 5909 5907 5906 5904 5903 5901 5900 5898 5896 5895
5909 5911 5912 5912 5912 5912 5912 5913 5913 5913 5914 5914 5914 5915 5915 5916 5916 5916 5916 5916 5916 5916 5916 5915 5915 5915 5914 5913 5913 5912 5910 5909 5907 5905 5903 5902 5901 5899 5898 5896 5895 5893
5906 5907 5908 5909 5909 5909 5910 5910 5910 5911 5911 5911 5912 5913 5913 5914 5914 5914 5915 5915 5914 5914 5914 5914 5913 5913 5913 5912 5911 5910 5909 5907 5905 5903 5901 5900 5898 5897 5896 5894 5893 5891
5903 5904 5905 5905 5906 5906 5907 5907 5908 5908 5909 5909 5910 5910 5911 5911 5912 5912 5912 5913 5913 5913 5912 5912 5911 5911 5911 5910 5910 5908 5906 5904 5903 5901 5899 5898 5896 5895 5893 5892 5890 5889
5900 5901 5901 5902 5902 5903 5904 5904 5905 5905 5906 5907 5907 5908 5909 5909 5910 5910 5910 5910 5911 5911 5911 5910 5910 5909 5909 5908 5907 5906 5904 5902 5901 5899 5897 5895 5894 5892 5891 5889 5888 5887
5897 5897 5898 5898 5899 5900 5901 5901 5902 5903 5903 5904 5905 5906 5907 5907 5907 5908 5908 5908 5909 5908 5908 5908 5908 5907 5906 5905 5904 5903 5902 5900 5899 5897 5895 5893 5891 5890 5888 5887 5886 5884
5894 5895 5895 5896 5896 5897 5898 5898 5899 5900 5901 5901 5902 5903 5904 5905 5905 5905 5906 5906 5906 5906 5906 5905 5905 5905 5904 5902 5901 5900 5899 5898 5896 5894 5893 5891 5889 5887 5886 5885 5883 5881
5892 5892 5893 5893 5894 5894 5895 5895 5896 5897 5898 5899 5899 5900 5901 5902 5903 5903 5904 5904 5904 5904 5903 5902 5902 5901 5901 5899 5898 5897 5896 5894 5893 5892 5890 5888 5886 5885 5883 5882 5880 5879
5890 5890 5890 5891 5891 5891 5892 5892 5893 5894 5895 5896 5897 5898 5899 5899 5900 5901 5901 5901 5901 5901 5901 5900 5899 5898 5898 5896 5895 5894 5893 5891 5890 5889 5887 5885 5884 5882 5881 5879 5877 5876
5888 5888 5888 5888 5889 5889 5889 5890 5891 5891 5892 5893 5894 5895 5896 5897 5898 5898 5898 5899 5899 5898 5898 5898 5897 5896 5895 5894 5892 5891 5890 5888 5887 5885 5884 5882 5881 5879 5878 5876 5874 5873
5887 5887 5886 5886 5887 5887 5887 5887 5888 5889 5889 5890 5891 5892 5894 5894 5895 5895 5896 5896 5896 5896 5896 5896 5895 5894 5893 5892 5890 5888 5887 5886 5884 5883 5881 5880 5879 5877 5875 5873 5871 5870
5885 5884 5884 5884 5884 5884 5884 5885 5885 5886 5886 5887 5888 5890 5891 5892 5892 5893 5893 5893 5893 5893 5893 5893 5893 5892 5891 5889 5888 5886 5884 5883 5882 5880 5879 5878 5876 5874 5872 5870 5868 5867
5882 5882 5882 5882 5882 5882 5882 5883 5883 5883 5883 5884 5886 5887 5888 5889 5890 5890 5890 5890 5890 5891 5891 5891 5890 5889 5888 5887 5885 5883 5881 5880 5879 5877 5875 5874 5873 5872 5869 5867 5865 5863
5879 5880 5880 5880 5880 5881 5880 5880 5880 5880 5880 5881 5883 5884 5885 5886 5887 5887 5887 5887 5888 5888 5888 5888 5888 5887 5885 5884 5882 5880 5878 5877 5875 5873 5871 5870 5869 5868 5866 5864 5862 5860
5876 5877 5877 5877 5878 5878 5878 5877 5877 5877 5877 5878 5879 5880 5882 5883 5883 5884 5884 5884 5885 5885 5885 5885 5884 5883 5882 5881 5879 5877 5875 5873 5872 5870 5868 5866 5865 5864 5862 5860 5858 5856
5873 5873 5874 5875 5875 5875 5875 5874 5874 5874 5874 5875 5876 5877 5878 5879 5880 5881 5881 5881 5882 5882 5882 5882 5881 5880 5878 5877 5875 5873 5871 5869 5868 5867 5865 5863 5862 5860 5858 5857 5855 5853
5869 5870 5871 5872 5872 5872 5872 5871 5870 5870 5871 5872 5873 5873 5874 5875 5877 5877 5878 5878 5879 5878 5878 5878 5877 5876 5875 5873 5871 5869 5867 5865 5864 5863 5861 5860 5859 5857 5855 5853 5851 5849
5866 5866 5868 5869 5869 5868 5868 5867 5867 5868 5868 5868 5869 5870 5871 5872 5873 5874 5874 5875 5875 5875 5874 5874 5874 5873 5871 5869 5868 5865 5863 5862 5861 5860 5858 5856 5855 5853 5851 5849 5847 5845
5863 5863 5864 5865 5865 5864 5864 5864 5864 5864 5865 5865 5866 5867 5868 5869 5870 5870 5871 5871 5871 5871 5871 5871 5870 5869 5867 5866 5864 5862 5860 5858 5857 5856 5854 5852 5851 5849 5847 5845 5843 5841
5860 5860 5861 5861 5861 5861 5861 5861 5861 5861 5862 5862 5863 5864 5865 5866 5867 5868 5868 5868 5868 5867 5867 5867 5867 5866 5864 5863 5861 5859 5857 5855 5854 5852 5851 5849 5846 5844 5843 5841 5839 5837
5856 5856 5857 5857 5857 5857 5858 5858 5858 5858 5858 5859 5860 5861 5862 5863 5864 5864 5864 5865 5864 5864 5864 5863 5863 5862 5860 5859 5857 5855 5853 5851 5850 5849 5847 5845 5842 5840 5839 5837 5835 5833
5853 5853 5853 5854 5854 5854 5855 5856 5855 5855 5856 5856 5857 5858 5859 5860 5860 5861 5861 5861 5861 5860 5860 5859 5858 5857 5856 5854 5852 5850 5848 5847 5846 5844 5843 5841 5839 5837 5835 5833 5832 5829
5849 5849 5849 5850 5851 5852 5852 5853 5853 5853 5853 5854 5854 5855 5856 5856 5856 5857 5857 5857 5857 5856 5855 5854 5853 5852 5851 5850 5848 5846 5844 5843 5841 5839 5838 5836 5835 5833 5831 5829 5827 5825
5846 5845 5846 5848 5849 5849 5850 5850 5850 5850 5850 5851 5851 5851 5852 5852 5853 5853 5853 5852 5852 5851 5850 5850 5849 5847 5846 5845 5844 5842 5840 5839 5837 5835 5833 5831 5830 5828 5826 5824 5823 5821
Wind_Speed
14 13 13 13 13 13 13 13 13 12 12 11 11 10 9 9 9 9 9 10 11 12 13 14 14 15 16 16 16 16 15 15 16 18 19 21 23 21 17 17 19 21
17 16 15 15 16 16 16 15 14 13 13 13 12 11 10 9 9 9 10 10 11 12 13 14 15 15 16 16 16 15 15 16 18 19 20 20 21 20 16 15 17 20
19 18 17 18 19 19 18 16 15 14 14 14 13 12 10 9 9 9 10 10 11 12 13 14 14 15 15 16 15 15 17 18 19 20 21 21 21 20 17 16 17 20
22 20 20 21 22 21 20 17 16 15 15 15 14 12 11 10 9 9 9 11 12 13 14 15 14 14 14 15 15 16 18 20 21 21 22 22 21 21 19 18 20 23
24 23 23 23 24 23 21 18 17 16 16 15 15 12 11 10 9 8 9 10 12 13 14 14 14 13 14 14 16 17 18 20 21 22 23 23 22 21 21 22 22 24
25 24 25 25 25 24 22 19 18 17 16 15 15 12 10 9 9 8 9 10 11 12 12 12 13 14 14 15 16 17 18 20 22 23 23 23 22 22 22 23 24 24
26 26 26 26 25 23 21 19 17 16 17 16 14 12 10 9 8 8 9 10 11 11 12 13 14 15 15 15 16 17 19 21 21 22 23 23 22 22 21 21 23 23
25 25 23 23 21 19 18 17 16 17 17 15 14 12 10 9 8 8 9 10 10 12 13 14 14 14 15 16 18 19 20 21 22 22 23 24 24 23 22 21 22 22
22 20 18 18 17 16 16 16 17 17 17 15 15 13 11 9 8 9 10 10 11 13 14 15 15 15 16 18 20 21 22 23 24 24 25 26 26 26 24 23 23 23
17 16 16 15 15 16 16 17 18 18 17 16 15 13 11 10 9 10 11 11 12 14 15 16 16 16 17 19 21 23 25 26 27 27 27 27 28 28 27 26 25 25
15 15 15 16 16 17 17 18 18 18 17 16 15 13 12 11 10 11 12 12 13 14 16 17 17 17 18 21 24 26 28 29 30 29 29 29 29 29 28 27 27 27
15 15 16 17 17 18 18 19 19 18 18 17 15 14 13 12 12 12 13 14 15 16 17 17 17 18 20 23 26 29 30 32 33 32 32 31 31 31 29 28 28 28
16 16 17 18 18 19 19 19 19 19 18 18 16 15 14 13 12 13 14 16 16 17 18 18 18 19 21 24 27 30 32 33 34 35 34 33 32 32 31 30 29 30
18 19 20 19 20 20 20 19 19 19 19 19 17 15 14 13 13 14 16 17 18 18 19 19 19 19 22 24 27 30 32 34 35 36 36 35 34 33 33 32 32 33
23 22 22 22 21 21 20 19 19 20 20 19 17 16 15 14 14 15 17 18 18 18 18 18 19 20 22 25 27 30 33 34 36 37 37 36 34 34 34 33 33 34
26 26 25 25 23 22 21 21 21 22 22 20 18 17 15 15 15 16 17 18 18 18 18 18 20 22 24 25 28 31 33 35 37 37 37 36 35 35 35 34 34 35
28 28 27 26 25 24 23 23 24 24 23 21 19 17 16 16 16 16 18 18 18 17 18 20 22 23 25 27 29 32 34 36 36 36 36 36 36 36 35 34 34 35
28 28 27 26 26 25 25 25 26 25 23 21 19 18 17 17 16 16 17 17 17 17 19 20 21 23 25 28 30 33 35 37 36 35 35 35 35 35 34 34 34 35
29 30 28 26 25 26 27 28 27 26 23 21 19 19 18 17 15 15 16 15 16 16 17 18 20 22 25 28 31 34 37 37 34 32 33 33 33 33 33 34 35 36
29 30 29 27 27 28 30 29 28 26 23 21 21 20 18 16 15 15 15 15 16 17 18 18 20 23 26 28 31 34 36 34 30 29 31 32 32 33 34 35 37 38
29 29 29 28 29 30 31 30 28 26 24 23 21 19 17 16 16 15 15 17 18 20 20 20 21 24 27 30 33 35 36 33 30 30 33 34 35 36 36 38 39 39
30 30 30 30 31 32 32 31 29 27 25 23 21 19 18 17 16 16 17 19 21 21 22 22 24 26 30 32 35 38 38 36 34 34 35 36 37 38 39 41 41 41
31 31 31 31 32 33 32 31 29 27 25 24 21 19 18 17 17 18 19 20 21 22 23 24 26 29 32 33 36 39 40 39 38 38 38 39 40 41 42 42 43 42
33 33 32 32 33 34 32 31 29 27 25 23 21 19 18 18 18 19 20 21 21 23 25 26 28 30 33 34 36 39 41 41 41 40 40 41 41 42 43 43 43 42
35 35 34 33 33 33 32 30 28 27 25 24 22 20 19 19 20 21 22 22 22 24 27 28 30 33 35 36 38 41 43 43 43 41 41 42 43 43 43 43 42 41
38 37 36 33 32 31 29 28 28 27 26 24 23 21 20 21 22 23 24 24 24 26 29 30 32 36 38 38 40 42 44 45 44 41 40 42 43 43 43 42 41 40
Wind_Direction
246 242 241 242 245 248 254 262 268 272 277 282 280 275 274 278 284 291 298 303 306 308 310 313 314 314 316 319 321 322 327 334 338 341 343 344 346 348 348 350 353 351
250 249 247 246 248 249 251 258 264 268 272 277 277 273 270 272 278 286 293 299 305 307 310 313 313 312 312 314 316 319 325 333 336 337 339 340 342 343 339 338 344 347
247 248 249 248 249 251 252 255 261 265 268 272 273 269 266 267 272 280 290 298 303 306 308 312 312 310 309 310 314 319 326 330 332 333 334 334 335 335 330 324 327 333
243 244 245 247 249 252 254 254 258 261 262 266 267 263 261 264 269 276 287 295 299 301 305 306 307 306 306 310 315 320 325 327 327 327 327 327 326 324 321 316 314 317
241 241 243 247 249 252 253 252 253 255 257 262 262 257 256 261 268 277 285 290 293 297 300 301 301 302 305 310 316 319 321 321 320 320 320 320 318 316 314 311 310 311
240 241 242 245 248 250 250 248 248 250 253 256 255 253 252 257 267 278 284 287 291 294 295 296 297 300 304 310 315 316 316 317 318 319 321 320 317 312 309 308 309 310
242 241 242 244 246 246 244 241 241 245 247 249 249 247 248 255 266 275 279 283 288 289 291 293 296 301 305 309 313 315 316 318 321 324 326 327 325 320 313 310 311 312
241 240 240 240 239 236 233 232 233 238 242 243 241 239 242 253 263 268 273 279 283 287 291 295 297 300 306 312 315 318 319 320 324 329 332 332 332 329 325 321 319 318
236 233 231 227 223 220 220 224 227 231 235 236 236 236 240 247 255 262 269 277 283 289 293 296 298 303 310 315 317 319 321 324 327 330 332 333 333 332 330 328 326 323
230 224 219 214 210 211 215 220 224 226 227 229 232 237 242 245 250 259 268 278 284 289 293 296 301 307 312 315 317 320 325 328 330 330 330 332 333 333 330 328 327 324
228 222 215 210 207 210 214 218 222 222 220 222 227 234 242 247 252 260 269 277 282 286 291 296 302 308 312 314 317 322 326 327 328 329 330 331 332 332 329 327 326 324
229 222 215 213 211 213 216 216 218 218 217 218 223 231 240 246 253 261 269 275 280 285 290 295 301 306 310 314 319 323 326 327 327 328 330 330 330 328 326 325 324 322
228 224 220 218 217 218 218 216 215 215 216 219 222 230 238 245 251 260 268 273 277 282 288 293 297 300 307 316 322 325 327 327 327 326 326 326 326 325 322 320 320 319
228 229 229 227 225 224 223 219 217 217 219 221 224 229 236 243 250 257 264 269 274 279 285 289 292 298 310 320 324 325 325 325 324 323 321 319 320 322 320 316 316 316
234 234 236 235 232 230 227 223 222 223 224 226 227 230 235 241 247 253 260 266 272 279 284 287 293 303 315 322 323 323 323 322 322 321 319 316 315 317 317 315 315 315
244 240 239 241 240 234 229 225 224 227 229 230 230 232 236 241 245 251 258 264 272 279 284 291 300 310 317 320 321 322 322 322 323 323 321 317 314 314 315 315 315 316
255 249 243 243 244 239 232 228 227 230 232 232 232 234 237 240 245 252 259 267 276 283 288 295 302 310 316 319 321 322 320 320 321 321 320 317 313 313 313 314 314 316
264 258 250 245 245 242 236 231 230 231 232 233 234 236 238 240 246 253 262 273 282 286 290 295 301 310 318 320 321 319 316 315 316 316 316 315 314 313 313 313 314 315
267 264 257 248 245 242 237 234 233 232 231 231 232 236 241 245 249 255 265 276 284 288 293 298 306 316 320 319 318 316 314 312 313 315 315 314 315 314 314 314 315 315
268 267 262 251 244 241 239 238 237 233 229 226 227 234 243 249 252 260 273 282 287 292 297 305 314 318 316 316 316 315 315 315 317 317 316 315 316 315 315 316 315 315
268 269 265 255 245 242 242 241 238 233 228 226 227 233 239 245 253 265 278 285 290 295 300 308 316 315 312 314 318 317 315 316 319 319 317 317 316 316 316 316 315 315
266 268 265 257 248 244 243 242 239 234 230 228 228 231 235 243 256 271 280 285 290 296 303 310 314 313 312 315 318 318 317 315 316 318 317 316 316 315 315 315 314 315
264 266 265 258 250 246 244 242 239 234 230 229 229 232 239 249 260 270 278 284 290 297 304 309 311 310 310 314 316 317 317 315 313 313 315 314 314 314 313 313 313 314
261 263 264 258 252 248 244 240 237 232 229 228 230 235 244 252 261 270 277 284 291 298 303 306 306 306 308 311 312 313 315 315 312 309 310 311 311 311 311 312 313 313
260 261 261 257 252 247 242 237 234 230 228 230 235 241 248 256 265 272 278 285 293 298 302 305 304 304 306 308 308 309 312 314 312 307 306 308 309 309 309 310 312 312
257 257 257 255 250 244 239 236 232 230 232 237 242 248 253 259 266 272 278 285 293 297 300 303 303 303 305 307 306 307 310 313 311 306 304 306 308 308 308 309 310 310